Hourly Data Report for July 20, 2021

KITCHENER/WATERLOO
ONTARIO
Current Station Operator: NAVCAN

43°27'39.000" N
80°22'43.000" W
321.60 m
6144239
71368
YKF

Download Data

Hourly Data (July 2021)
Hourly Data Report for July 20, 2021
TIME
LST
Temp Definition
°C
Dew Point Definition
°C
Rel Hum Definition
%
Precip. Amount Definition
mm

Wind Dir Definition
10's deg

Wind Spd Definition
km/h
Visibility Definition
km
Stn Press Definition
kPa
Hmdx Definition


Wind Chill Definition


Weather Definition


00:00 19.3 18.0 92 0.0 30 9 6.4 97.90     Fog
01:00 17.9 17.3 96 0.0 30 5 4.8 97.87     Fog
02:00 17.5 17.0 97 0.0 31 4 4.8 97.84     Fog
03:00 17.5 16.2 92 0.0 31 8 4.8 97.80     Fog
04:00 16.4 15.6 95 0.0 29 8 4.8 97.79     Fog
05:00 17.1 15.8 92 0.0 31 8 4.8 97.79     Fog
06:00 16.9 15.9 94 0.0 29 4 4.8 97.81     Fog
07:00 19.3 17.6 90 0.0   0 4.8 97.79     Fog
08:00 21.9 18.8 83 0.0 29 11 6.4 97.78 29   Haze
09:00 23.8 19.1 74 0.0 LegendMM 4 6.4 97.72 31   Haze
10:00 26.2 19.2 65 0.0 26 11 9.7 97.69 33   Haze
11:00 26.5 19.2 64 0.0 25 13 12.9 97.66 33   LegendNANA
12:00 27.3 18.5 58 0.0 25 28 12.9 97.63 34   LegendNANA
13:00 27.5 18.1 56 0.0 25 26 12.9 97.56 34   LegendNANA
14:00 27.0 16.0 51 0.0 25 26 14.5 97.53 32   LegendNANA
15:00 26.9 17.2 55 0.0 26 21 16.1 97.49 32   LegendNANA
16:00 26.5 17.4 57 0.0 30 22 16.1 97.45 32   LegendNANA
17:00 20.3 17.8 86 0.2 35 15 16.1 97.52 26   Rain
18:00 20.2 18.5 90 4.8 30 5 16.1 97.52 27   LegendNANA
19:00 20.6 18.3 86 0.0 35 5 16.1 97.56 27   LegendNANA
20:00 18.9 17.3 90 0.0 1 17 16.1 97.61     LegendNANA
21:00 17.2 15.7 91 0.0 36 13 16.1 97.67     LegendNANA
22:00 16.9 15.6 92 0.0 32 9 16.1 97.72     LegendNANA
23:00 15.6 14.8 95 0.0 32 8 16.1 97.74     LegendNANA

Notes on Data Quality.

Legend

  • E = Estimated
  • M = Missing
  • NA = Not Available*
  • [empty] = Indicates an unobserved value
Date modified: